sat.trackr.live / text

‹ back to catalog

ONEWEB-0688

NORAD 61596 · 2024-188C

PAYLOAD ACTIVE UNKNOWN

§ Identity

Operator
Country
UK
Launch date
2024-10-20
Launch site
AFWTR
Launch vehicle
Mass (kg)
RCS (m²)

Purposes: comms

External: N2YO · Heavens-Above · Gunter

§ Orbital elements

Epoch: 2026-09-19T22:50:40.881984Z

Period
109.29 min
Inclination
87.9197°
Eccentricity
0.0003015
Mean motion
13.17647338 rev/d
Perigee alt
1,191.4 km
Apogee alt
1,196.0 km
Semi-major
7,571.9 km
B*
3.6659e-5
RAAN
347.0551°
Arg perigee
113.3216°
Mean anomaly
246.8233°
Rev number
9,837

§ Raw data

ONEWEB-06881 61596U 24188C   26262.95186206  .00000027  00000+0  36659-4 0  99962 61596  87.9197 347.0551 0003015 113.3216 246.8233 13.17647338 98379

JSON: /api/v1/satellites/61596 · /tle

For live sub-satellite position, see the globe view (requires WebGL).

§ Visibility from observer

Set your observer location to see the next 7 days of passes ≥ 10°. The values pass through the URL so the page stays shareable.

No JS? Fill the form by hand. The geolocation button needs JavaScript.